Preview of NWS' New Version of Forecast
This preview is not operational and should not be used for support decisions.
Latest weather observations around

Tuscaloosa Regional Airport (KTCL)

Using English Units (Switch to International System of Units)
Date/ Time (CDT) Wind (mph) Vis. (mi) Weather Sky Cond. Temp (°F) Rel. Humidity Wind Chill (°F) Heat Index (°F) Pressure Precip. (in)
Air Dwpt 6 hour Altimeter (inHg) Sea level (inHg) 1 hr 3 hr 6 hr
Max Min
Aug 25 10:14 ESE 8 10 Cloudy OVC015 82 74     77%   88 30        
Aug 25 09:53 E 7 10 Cloudy OVC014 80 73     79%   84 30 29.99      
Aug 25 09:51 E 7 10 Cloudy OVC014 81 73     79%   85 30        
Aug 25 09:12 SE 8 10 Mostly Cloudy BKN015 80 74     82%   85 29.99        
Aug 25 09:01 7 10 Partly Cloudy SCT013 80 73     79%   84 29.99        
Aug 25 08:53 ESE 8 10 Mostly Cloudy BKN013 80 73     79%   84 29.99 29.98      
Aug 25 08:28 ESE 6 10 Mostly Cloudy BKN012 80 73     79%   84 29.99        
Aug 25 07:53 Calm 10 Clear CLR 79 74     85%   83 29.99 29.98      
Aug 25 06:53 Calm 8 Clear CLR 76 73     91%   77 29.98 29.97      
Aug 25 05:53 Calm 10 Clear CLR 75 73     94%   77 29.97 29.96      
Aug 25 04:53 Calm 10 Mostly Clear FEW060 76 73     91%   77 29.96 29.96      
Aug 25 03:53 N 3 10 Cloudy OVC100 76 73     91%   77 29.96 29.96      
Aug 25 02:53 Calm 10 Cloudy FEW070 OVC100 76 73     91%   77 29.97 29.96      
Aug 25 01:53 NE 3 10 Mostly Cloudy BKN080 76 73     91%   77 29.98 29.97      
Aug 25 00:53 Calm 10 Partly Cloudy SCT095 75 73     94%   77 29.99 29.98     0
Aug 24 23:53 Calm 10 Clear CLR 76 73     91%   77 30 29.99      
Aug 24 22:53 NE 6 10 Clear CLR 76 73     91%   77 30.01 30      
Aug 24 21:53 ENE 6 10 Mostly Clear FEW110 76 73     91%   77 30 29.99   0  
Aug 24 20:53 NE 6 10 Clear CLR 76 74     94%   78 30 29.99 0    
Aug 24 19:53 NNE 9 10 Light Rain CLR 77 74     90%   79 29.99 29.98 0    
Aug 24 18:53 NNE 5 10 Clear CLR 79 75     88%   83 29.99 29.98 0   0
Aug 24 17:53 W 5 10 Partly Cloudy SCT013 79 75     88%   83 29.98 29.97 0    
Aug 24 17:41 3 10 Mostly Cloudy BKN013 BKN047 79 76     90%   83 29.98   0    
Aug 24 16:53 NNE 3 10 Light Rain FEW060 SCT120 81 73     77%   86 29.98 29.97 0    
Aug 24 15:53 Calm 10 Mostly Clear FEW085 82 72     72%   87 29.97 29.96      
Aug 24 15:00 SE 3 10 Clear CLR 84 71     65%   89 29.96        
Aug 24 14:53 SE 5 10 Clear CLR 83 71     67%   88 29.96 29.95      
Aug 24 14:31 SSE 11 10 Clear CLR 86 72     63%   92 29.96        
Aug 24 14:04 E 10 10 Mostly Cloudy SCT045 SCT055 BKN080 86 74     67%   94 29.97        
Aug 24 13:53 ESE 10 10 Thunderstorms SCT045 BKN055 BKN070 86 72     63%   92 29.98 29.97      
Aug 24 13:11 5 10 Thunderstorms CLR 92 73     54%   101 29.98        
Aug 24 12:53 WNW 5 10 Mostly Clear FEW033 91 75     60%   102 29.99 29.98      
Aug 24 11:53 Calm 10 Clear CLR 87 74     65%   95 30.01 30      
Aug 24 10:53 Calm 10 Clear CLR 87 74     65%   95 30.03 30.02      
Aug 24 09:53 NNW 5 10 Clear CLR 86 74     67%   94 30.04 30.03      
Aug 24 08:53 N 5 10 Clear CLR 83 74     74%   89 30.04 30.03      
Aug 24 07:53 Calm 10 Clear CLR 78 73     85%   80 30.04 30.03      
Aug 24 06:53 Calm 9 Clear CLR 74 71     91%   75 30.03 30.02      
Aug 24 05:53 Calm 9 Clear CLR 73 71     94%   74 30.02 30.01      
Aug 24 04:53 Calm 10 Clear CLR 74 71     91%   75 30.01 30      
Aug 24 03:53 NNE 3 10 Clear CLR 74 71     91%   75 30 29.99      
Aug 24 02:53 Calm 10 Clear CLR 73 71     94%   74 30 29.99      
Aug 24 01:53 Calm 10 Clear CLR 74 71     91%   75 30 29.99      
Aug 24 00:53 Calm 10 Clear CLR 74 71     91%   75 30 29.99      
Aug 23 23:53 SSE 3 10 Clear CLR 75 71     88%   76 30 29.99      
Aug 23 22:53 SSW 3 10 Clear CLR 77 72     84%   78 30.02 30.01      
Aug 23 21:53 S 5 10 Clear CLR 78 73     85%   80 30 30      
Aug 23 20:53 Calm 10 Mostly Clear FEW085 79 72     79%   82 29.98 29.97      
Aug 23 19:53 Calm 10 Clear CLR 81 72     74%   85 29.97 29.96      
Aug 23 18:53 NE 8 10 Clear CLR 85 72     65%   91 29.98 29.97     0
Aug 23 17:53 N 9 10 Clear CLR 88 73     61%   96 29.97 29.96      
Aug 23 16:53 Calm 10 Clear CLR 90 73     58%   98 29.95 29.94      
Aug 23 15:53 NE 5 10 Clear CLR 88 74     63%   97 29.96 29.95   0  
Aug 23 14:53 N 8 10 Clear CLR 85 73     68%   92 29.99 29.98 0    
Aug 23 14:10 S 7 10 Mostly Cloudy FEW041 SCT060 BKN095 81 75     82%   87 30.02   0    
Aug 23 13:53 SSW 9 5 Thunderstorms and Rain SCT095 85 75     72%   93 30.01 30 0    
Aug 23 13:32 NW 10 10 Mostly Clear FEW037 88 75     66%   98 30        
Aug 23 13:25 NW 10 10 Partly Cloudy SCT037 90 75     62%   101 30        
Aug 23 13:06 Calm 10 Clear CLR 90 75     62%   101 30        
Aug 23 12:53 WSW 6 10 Clear CLR 90 75     62%   101 30 29.99      
Aug 23 11:53 NE 3 10 Clear CLR 90 74     59%   99 30.01 30      
Aug 23 10:53 Calm 10 Mostly Clear FEW050 86 77     75%   97 30.04 30.03      
Aug 23 09:53 Calm 10 Mostly Cloudy BKN055 BKN070 82 75     79%   89 30.06 30.05      
Aug 23 08:53 S 7 10 Mostly Clear FEW055 81 75     82%   87 30.05 30.04      
Aug 23 07:53 S 5 9 Clear CLR 79 75     88%   83 30.04 30.03      
Aug 23 07:21 Calm 6 Fog/Mist CLR 76 74     94%   78 30.04        
Aug 23 07:14 Calm 2.5 Fog/Mist CLR 76 74     94%   78 30.04        
Aug 23 06:53 Calm 6 Fog/Mist CLR 75 73     94%   77 30.04 30.03      
Aug 23 06:51 Calm 6 Fog/Mist CLR 75 73     94%   77 30.04        
Aug 23 06:44 Calm 2.5 Fog/Mist CLR 75 73     94%   77 30.03        
Aug 23 06:34 Calm 0.75 Fog/Mist VV003 74 73     97%   76 30.03        
Aug 23 06:32 Calm 1.25 Fog/Mist FEW003 74 73     97%   76 30.03        
Aug 23 05:53 Calm 7 Clear CLR 75 73     94%   77 30.01 30      
Aug 23 04:53 Calm 3 Fog/Mist CLR 75 73     94%   77 29.98 29.97      
Aug 23 04:15 Calm 6 Fog/Mist FEW002 75 74     96%   77 29.98        
Aug 23 03:53 Calm 4 Fog/Mist CLR 75 73     94%   77 29.98 29.97      
Aug 23 03:40 Calm 5 Fog/Mist CLR 75 74     96%   77 29.98        
Aug 23 03:18 Calm 2 Fog/Mist CLR 75 74     96%   77 29.98        
Aug 23 02:53 Calm 5 Fog/Mist CLR 76 74     94%   78 29.99 29.98      
Aug 23 01:53 Calm 7 Partly Cloudy SCT060 77 74     90%   79 30 29.99      
Aug 23 00:53 Calm 7 Partly Cloudy SCT100 77 75     94%   79 30.01 30.01      
Aug 22 23:53 Calm 9 Mostly Cloudy BKN095 77 75     94%   79 30.01 30      
Aug 22 22:53 SE 3 6 Fog/Mist FEW060 76 75     97%   78 30.01 30      
Aug 22 22:31 Calm 6 Fog/Mist CLR 76 75     97%   78 30.01        
Aug 22 22:23 Calm 2.5 Fog/Mist CLR 76 74     94%   78 30        
Aug 22 21:53 Calm 7 Clear CLR 77 75     94%   79 30 29.99      
Aug 22 20:53 Calm 9 Clear CLR 77 75     94%   79 29.98 29.97      
Aug 22 19:53 Calm 6 Fog/Mist CLR 77 76     96%   79 29.95 29.94      
Aug 22 18:53 Calm 10 Clear CLR 79 76     90%   83 29.95 29.94 0   0
Aug 22 18:04 3 6 Light Rain FEW047 SCT070 BKN100 79 74     85%   83 29.96   0    
Aug 22 17:53 5 10 Thunderstorms FEW013 SCT045 BKN100 79 74     85%   83 29.96 29.96 0    
Aug 22 17:49 E 3 10 Thunderstorms FEW018 SCT045 BKN065 79 73     84%   82 29.96   0    
Aug 22 17:35 N 10 3 Light Rain SCT029 BKN044 BKN050 78 73     85%   80 29.98   0    
Aug 22 17:25 Calm 0.75 Heavy Rain BKN039 BKN055 BKN065 78 73     85%   80 29.98   0    
Aug 22 17:11   1.75 Thunderstorms and Heavy Rain SCT043 BKN050 BKN060 80 74     82%   85 29.98   0    
Aug 22 17:07   6 Thunderstorms and Haze SCT045 SCT060 86 73     65%   93 29.98        
Aug 22 16:53 W 5 10 Partly Cloudy SCT065 89 72     57%   96 29.97 29.96      
Aug 22 15:53 WSW 5 10 Mostly Clear FEW045 FEW055 89 74     61%   98 29.96 29.96      
Aug 22 14:53 SSW 7 10 Partly Cloudy FEW048 SCT060 89 72     57%   96 29.97 29.96      
Aug 22 13:53 SSW 6 10 Partly Cloudy FEW039 SCT065 89 72     57%   96 30 29.99      
Aug 22 12:53 S 3 10 Mostly Clear FEW035 87 73     63%   95 30.02 30.01      
Aug 22 11:53 SSW 5 10 Partly Cloudy SCT022 86 75     70%   95 30.05 30.05      
Aug 22 10:53 S 6 10 Clear CLR 82 75     79%   89 30.06 30.05      
May 14 13:53 NE 6 10 Clear CLR 94 61     34%   94 30 29.99      
May 13 19:53 Calm 10 Clear CLR 80 69     69%   83 30.01 30.01      
May 12 07:48 Calm 2 Clear   70 63     78%     30.17        
May 11 23:53 Calm 9 Clear CLR 66 65     96%     30.08 30.07      
Jun 11 13:53 7 10 Mostly Clear FEW050 90 67     47%   93 30.1 30.09      
Jun 11 12:53 SE 7 10 Mostly Clear FEW048 88 67     50%   91 30.11 30.1      
Jun 10 23:53 NNE 3 10 Clear CLR 71 66     84%   72 30.07 30.06 0    
Jun 10 11:53 3 10 Partly Cloudy SCT080 86 60     42%   86 30.07 30.06      
Jun 10 09:53 6 10 Clear CLR 81 62     53%   82 30.07 30.06      
Jun 09 15:53 SW 7 10 Clear CLR 82 58     44%   82 29.94 29.93      
Jun 09 01:53 Calm 8 Clear CLR 61 59     93%     29.92 29.91      
Jun 08 10:53 N 8 10 Clear CLR 76 59     56%   76 29.94 29.93      
Jun 06 03:53 NE 3 10 Cloudy OVC007 72 70     93%   73 29.77 29.76      
Jun 05 21:43 NE 5 10 Cloudy BKN009 OVC023 72 71     97%   73 29.8   0